User: anonymous   Login
Location: Unspecified
(0.0000°N, 0.0000°E)
Time: 18:53:19
(UTC+00:00)
Language:

A-11 Canister half - Orbit

View from above orbital plane
View from above orbital plane
View from above satellite
View from above satellite

Ground track
Ground track

The orbit data is extracted from the following two-line orbital elements,

1    53U 60009E   18174.90508054 -.00000086 +00000-0 +00000-0 0  9990
2    53 047.2774 333.3087 0099535 100.6277 260.5740 12.17214373580314
Epoch (UTC): 23 June 2018 21:43:18
Eccentricity: 0.0099535
inclination: 47.2774°
perigee height: 1525 km
apogee height: 1684 km
right ascension of ascending node: 333.3087°
argument of perigee: 100.6277°
revolutions per day: 12.17214373
mean anomaly at epoch: 260.5740°
orbit number at epoch: 58031

The dashed part of the orbit path shows where the satellite is in the earth's shadow,  

DLR